Weather Roundup
Issued by NWS

Home | Current Version | Previous Version | Text Only | Print | Product List | Glossary On
Versions: 1 2 3 4 5 6 7 8 9 10 11 12 13 14 15 16 17 18 19 20 21 22 23 24 25 26 27 28 29 30 31 32 33 34 35 36 37 38 39 40 41 42 43 44 45 46 47 48 49 50
000
NZUS93 KARX 280910
HRRWXR

CURRENT HOURLY OBSERVATIONS ACROSS
MUCH OF THE UPPER MISSISSIPPI VALLEY
NATIONAL WEATHER SERVICE LA CROSSE WI
400 AM CDT THU APR 28 2016


...SOUTHEAST MINNESOTA...


CITY           SKY/WX    TMP DP  RH WIND       PRES   REMARKS
ROCHESTER      LGT RAIN  39  32  76 E13       29.81R WCI  31
ROCHESTER/MAYO CLOUDY    40  31  71 NE8       29.82R WCI  34
WINONA         CLOUDY    43  28  56 E10       29.83S
AUSTIN         LGT RAIN  37  34  87 E10       29.79R WCI  30
ALBERT LEA     CLOUDY    37  37 100 E14G22    29.78S WCI  29
DODGE CENTER   LGT RAIN  37  34  87 E15       29.81R WCI  28
PRESTON        LGT RAIN  38  31  75 E12G18    29.80R WCI  31
OWATONNA       CLOUDY    39  34  81 NE10      29.82S WCI  32
FARIBAULT      CLOUDY    37  37 100 NE8       29.84R WCI  31
$$

...ELSEWHERE IN MINNESOTA...


CITY           SKY/WX    TMP DP  RH WIND       PRES   REMARKS
MINNEAPOLIS    CLOUDY    42  33  70 NE21G30   29.88S
INTNL FALLS    MOCLDY    37  17  44 NE5       30.09R WCI  33
DULUTH         CLOUDY    37  18  46 E17       30.01F WCI  27
RED WING       CLOUDY    43  32  65 E14       29.83S
REDWOOD FALLS  LGT RAIN  40  37  89 E14G22    29.85S WCI  32
MANKATO        CLOUDY    39  36  87 NE13G21   29.83R WCI  32
WORTHINGTON    LGT RAIN  39  38  96 NE18      29.77S WCI  30
FAIRMONT       CLOUDY    39  32  75 NE13      29.78R WCI  32
$$

...SOUTHWEST WISCONSIN...


CITY           SKY/WX    TMP DP  RH WIND       PRES   REMARKS
LA CROSSE      CLOUDY    44  27  51 E10G20    29.83S
PRAIRIE DU CHI LGT RAIN  43  35  72 E10G17    29.78R
BOSCOBEL       CLOUDY    44  33  65 E12G22    29.79S
LONE ROCK      MOCLDY    41  33  73 E14G22    29.81F
PLATTEVILLE    PTCLDY    42  40  93 E22G29    29.74R
FORT MC COY    CLOUDY    42  28  58 E13G22    29.85F
CAMP DOUGLAS   CLOUDY    42  29  61 E14       29.88R
MAUSTON-NEW LI CLOUDY    43  25  49 E5        29.88R
VIROQUA        PTSUNNY   40  30  68 E21G30    29.78F WCI  30
WIS DELLS      CLOUDY    41  28  60 E12       29.88S
$$

...ELSEWHERE IN WISCONSIN...


CITY           SKY/WX    TMP DP  RH WIND       PRES   REMARKS
MILWAUKEE      CLOUDY    45  36  70 E12       29.88R
MADISON        RAIN      40  36  86 NE12      29.86R FOG     WCI  33
GREEN BAY      CLOUDY    40  28  62 NE20      29.97S WCI  30
EAU CLAIRE     LGT RAIN  41  35  79 NE7       29.89S
BLACK RVR FLS  CLOUDY    42  24  48 E8G17     29.88R
MEDFORD        CLOUDY    38  14  37 NE16G23   29.91F WCI  29
WAUSAU         CLOUDY    40  13  33 E12G18    29.94S WCI  33
WIS RAPIDS     CLOUDY    41  17  38 E14       29.92S
MARSHFIELD     CLOUDY    41  16  36 E21G29    29.90R
RICE LAKE      LGT RAIN  42  18  37 NE9       29.94S
$$

...NORTHEAST IOWA...


CITY           SKY/WX    TMP DP  RH WIND       PRES   REMARKS
WATERLOO       CLOUDY    45  41  86 E14       29.73R
DUBUQUE        CLOUDY    44  41  89 NE12      29.73R
DECORAH        CLOUDY    41  32  70 E16       29.76R
MASON CITY     LGT RAIN  41  39  93 NE13      29.76R
CHARLES CITY   CLOUDY    41  41 100 E15       29.75S
OELWEIN        CLOUDY    43  43 100 E10G16    29.75R
$$

...ELSEWHERE IN IOWA...


CITY           SKY/WX    TMP DP  RH WIND       PRES   REMARKS
DES MOINES     CLOUDY    48  41  76 SW3       29.68R
IOWA CITY      CLOUDY    50  48  93 E6        29.72R FOG
FORT DODGE     CLOUDY    43  39  87 E13       29.69R
MARSHALLTOWN   LGT RAIN  47  45  93 E8        29.70R FOG
CEDAR RAPIDS   CLOUDY    48 N/A N/A E8        29.71R HAZE
$$

...NORTHERN ILLINOIS...


CITY           SKY/WX    TMP DP  RH WIND       PRES   REMARKS
CHICAGO-OHARE  LGT RAIN  43  42  97 NE12      29.85R FOG
CHICAGO-MIDWAY LGT RAIN  46  43  89 NE6       29.84R FOG
MOLINE         CLOUDY    49  46  90 E6        29.71R FOG
ROCKFORD       DRIZZLE   45  42  89 E10       29.81S
PEORIA         CLOUDY    53  50  89 E7        29.71R
$$

NOTE: "FAIR" INDICATES FEW OR NO CLOUDS BELOW 12,000 FEET WITH NO
SIGNIFICANT WEATHER AND/OR OBSTRUCTIONS TO VISIBILITY. WIND
SPEEDS ARE IN MILES-PER-HOUR.




USA.gov is the U.S. government's official web portal to all federal, state and local government web resources and services.